www.pogodaiklimat.ru

Погода и климат >> Архив погоды >> Россия >> Якутия >> Екюччю


ПОГОДА в Екюччю

  • Прогноз погоды в Екюччю
  • Монитор погоды в Екюччю
  • Климат города

АРХИВ ПОГОДЫ в Екюччю

Время (UTC), дата Ветер
(напр.,м/с)
 
Видим.   Явления Облачность Т
(С)
Тd
(С)
f
(%)
Тe
(С)
Тes
(С)
Комфортность P
(гПа)
Po
(гПа)
Тmin
(С)
Tmax
(С)
R
(мм)
R24
(мм)
S
(см)
18 11.12 штиль 0 50 км ясно -45.4 -46.7 87 -45 -45 опасность
обморожения
1024.0 993.8
21 11.12 штиль 0 50 км ясно -45.1 -46.7 84 -45 -45 опасность
обморожения
1022.7 992.5 -45.6 13
00 12.12 штиль 0 50 км 4/0
[Cc]
-44.8 -47.2 77 -45 -45 опасность
обморожения
1022.2 992.1
03 12.12 штиль 0 50 км 8/0
[Ac lent Ci]
-43.3 -45.7 77 -43 -43 опасность
обморожения
1020.7 990.9
06 12.12 штиль 0 20 км 10/0
[Ac As]
-41.0 -42.6 84 -41 -41 опасность
обморожения
1019.8 990.2
09 12.12 штиль 0 50 км 10/0
[Ac As]
-39.2 -40.6 86 -39 -39 опасность
обморожения
1019.2 989.9 -39.2
12 12.12 С 2 50 км 10/0
[Ac As]
-39.4 -41.1 84 -48 -48 опасность
обморожения
1019.3 990.0
15 12.12 штиль 0 50 км 10/0
[Ac As]
-40.6 -42.7 80 -41 -41 опасность
обморожения
1020.0 990.4
18 12.12 штиль 0 50 км 10/0
[Ac As Cs]
-41.1 -43.2 80 -41 -41 опасность
обморожения
1020.5 990.9
21 12.12 штиль 0 50 км 10/0
[Cs]
-42.4 -44.4 81 -42 -42 опасность
обморожения
1021.2 991.5 -42.4 13
00 13.12 штиль 0 50 км 10/0
[Cs]
-40.4 -42.7 78 -40 -40 опасность
обморожения
1021.2 991.8
03 13.12 С 2 50 км 8/0
[Ci fib]
-41.2 -43.2 81 -51 -51 опасность
обморожения
1020.9 991.3
06 13.12 штиль 0 50 км 10/0
[Cs]
-42.7 -43.8 89 -43 -43 опасность
обморожения
1020.3 990.5
09 13.12 штиль 0 50 км 3/0
[Ci fib]
-44.2 -45.9 83 -44 -44 опасность
обморожения
1020.2 990.3 -40.4
12 13.12 штиль 0 50 км ясно -45.4 -46.7 87 -45 -45 опасность
обморожения
1019.7 989.6
15 13.12 штиль 0 50 км ясно -46.0 -47.5 85 -46 -46 опасность
обморожения
1028.2 988.0
18 13.12 штиль 0 50 км ясно -46.0 -47.5 85 -46 -46 опасность
обморожения
1027.3 987.2
21 13.12 штиль 0 50 км ясно -46.2 -48.1 81 -46 -46 опасность
обморожения
1014.6 984.5 -46.3 13
00 14.12 штиль 0 50 км 10/0
[Ac und]
-42.2 -44.4 79 -42 -42 опасность
обморожения
1012.3 982.8
03 14.12 штиль 0 50 км 10/0
[Ac und]
-39.0 -41.2 79 -39 -39 опасность
обморожения
1009.8 980.8
06 14.12 штиль 0 50 км 10/0
[Ac As]
-37.8 -39.9 81 -38 -38 опасность
обморожения
1008.4 979.5
09 14.12 штиль 0 50 км 10/0
[Ac As Ci]
-38.9 -41.2 79 -39 -39 опасность
обморожения
1007.6 978.6 -37.8
12 14.12 С 1 50 км 10/0
[Ac As]
-38.0 -40.3 79 -43 -43 опасность
обморожения
1007.3 978.4
15 14.12 штиль 0 50 км 10/0
[Ac As]
-36.3 -38.4 81 -36 -36 опасность
обморожения
1006.5 977.9
18 14.12 С 1 50 км 10/0
[Ac As]
-35.1 -37.4 79 -40 -40 опасность
обморожения
1005.6 977.2
21 14.12 штиль 0 20 км слабый снег 10/0
[Ac lent Cs]
-33.1 -34.2 90 -33 -33 опасность
обморожения
1005.2 977.1 -38.9 0.0 13
00 15.12 С 2 20 км слабый снег 10/0
[As op Cs]
-32.5 -34.2 85 -40 -40 опасность
обморожения
1004.9 976.8
03 15.12 СВ 1 50 км {снег} 10/0
[As trans]
-32.5 -34.2 85 -37 -37 опасность
обморожения
1004.9 976.8
06 15.12 штиль 0 50 км {снег} 10/0
[Ac trans Cs]
-35.7 -37.5 83 -36 -36 опасность
обморожения
1005.1 976.6
09 15.12 штиль 0 50 км 10/0
[Cs]
-38.2 -39.7 86 -38 -38 опасность
обморожения
1006.1 977.4 -32.1 0.0
12 15.12 штиль 0 50 км 10/0
[As trans]
-35.5 -37.1 85 -36 -36 опасность
обморожения
1006.3 977.7
15 15.12 штиль 0 50 км 10/0
[Ac As]
-36.3 -38.4 81 -36 -36 опасность
обморожения
1006.5 977.9
18 15.12 штиль 0 50 км 10/0
[As trans]
-33.5 -35.3 84 -34 -34 опасность
обморожения
1005.2 977.0
21 15.12 штиль 0 50 км 10/0
[As trans]
-34.5 -36.2 84 -35 -35 опасность
обморожения
1004.7 976.3 -35.5 13
00 16.12 штиль 0 20 км слабый снег 10/0
[As op]
-32.2 -34.0 84 -32 -32 опасность
обморожения
1004.0 976.0
03 16.12 штиль 0 50 км {снег} 10/0
[Ac trans Ci fib]
-35.5 -37.1 85 -36 -36 опасность
обморожения
1004.6 976.1
06 16.12 штиль 0 50 км {снег} 10/0
[Ac trans Ci fib]
-37.5 -38.3 92 -38 -38 опасность
обморожения
1004.9 976.2
09 16.12 штиль 0 50 км 10/0
[Ac As]
-36.8 -38.5 84 -37 -37 опасность
обморожения
1005.5 976.9 -32.2 0.2
12 16.12 штиль 0 50 км 10/0
[Ac As]
-36.1 -37.8 84 -36 -36 опасность
обморожения
1005.6 977.1
15 16.12 20 км 10/0
[As op]
-34.2 -35.9 84 1005.1 976.9
18 16.12 штиль 0 50 км 10/0
[Ac As]
-34.1 -35.6 86 -34 -34 опасность
обморожения
1005.4 977.2
21 16.12 С 1 50 км 10/0
[As trans]
-33.2 -35.0 84 -38 -38 опасность
обморожения
1005.4 977.3 -36.8 0.0 13
00 17.12 С 3 50 км 10/0
[As op]
-32.8 -34.5 85 -43 -43 опасность
обморожения
1005.5 977.4
03 17.12 С 2 50 км 10/0
[As trans]
-33.4 -35.0 85 -41 -41 опасность
обморожения
1005.9 977.6
06 17.12 СЗ 2 50 км 10/0
[As op]
-32.9 -34.5 85 -41 -41 опасность
обморожения
1006.1 977.8
09 17.12 штиль 0 50 км 3/0
[Ci fib]
-36.2 -37.2 90 -36 -36 опасность
обморожения
1006.9 978.3 -32.6
12 17.12 штиль 0 50 км ясно -40.4 -41.5 89 -40 -40 опасность
обморожения
1008.4 979.3
15 17.12 штиль 0 50 км ясно -43.6 -44.6 90 -44 -44 опасность
обморожения
1009.2 979.6
18 17.12 штиль 0 50 км ясно -45.2 -46.1 91 -45 -45 опасность
обморожения
1010.2 980.4
21 17.12 штиль 0 50 км ясно -45.7 -48.1 76 -46 -46 опасность
обморожения
1010.6 980.7 -47.1 12
00 18.12 З 1 50 км ясно -46.0 -48.1 79 -52 -52 опасность
обморожения
1011.6 981.6 -14.9
03 18.12 штиль 0 50 км ясно -46.4 -48.1 83 -46 -46 опасность
обморожения
1011.9 982.0
06 18.12 штиль 0 50 км ясно -47.1 -49.0 81 -47 -47 опасность
обморожения
1013.5 983.3
09 18.12 штиль 0 50 км ясно -47.7 -50.0 77 -48 -48 опасность
обморожения
1014.8 984.5 -46.0
12 18.12 штиль 0 50 км ясно -48.0 -50.0 80 -48 -48 опасность
обморожения
1015.6 985.3

 

Местоположение метеостанции Екюччю (Якутия, Россия): широта 66.77 долгота 131.60 высота над уровнем моря 200 м.

В архиве по умолчанию представлена погода в Екюччю за последнюю неделю. Архивные данные за месяц целиком и за предыдущие месяцы, начиная с января 2011 года, Вы можете получить, выбрав интересующий диапазон дат из раскрывающегося списка и нажав кнопку "Ввод!".


*Определитесь, кто Вы:
робот инопланетянин человек

Внимание! Время в таблицах - всемирное. Для получения местного времени необходимо прибавить поправку, которая в Екюччю равна 10 ч.

Смотрите также архив погоды в соседних городах и на ближайших метеорологических станциях:

Погода в Верхоянске (Якутия, Россия) (118 км)
Погода в Батагай-Алыте (Якутия, Россия) (124 км)
Погода в Батагае (Якутия, Россия) (162 км)
Погода в Себян-Кюеле (Якутия, Россия) (179 км)
Погода в Усть-Чарках (Якутия, Россия) (219 км)
Погода в Иэме (Якутия, Россия) (250 км)
Погода в Сеген-Кюели (Якутия, Россия) (314 км)
Погода в Жиганске (Якутия, Россия) (364 км)
Погода в Сого-Хае (Якутия, Россия) (366 км)
Погода в Сангаре (Якутия, Россия) (369 км)

Пояснения к столбцам:

Ветер - указаны скорость ветра в м/с - средняя за 10 мин, порывы в срок и между сроками (в фигурных скобках) и направление, откуда дует ветер: С - северный, СВ - северо-восточный, В - восточный, ЮВ - юго-восточный, Ю - южный, ЮЗ - юго-западный, З - западный, СЗ - северо-западный.
Видимость - горизонтальная дальность видимости в метрах или километрах. При видимости от 1 до 10 км при отсутствии осадков обычно наблюдается дымка, при ухудшении видимости до 1 км и менее - туман. В сухую погоду видимость может ухудшаться дымом, пылью или мглою.
Явления - указаны атмосферные явления, наблюдавшиеся в срок или в последний час перед сроком; фигурными скобками обозначены явления, наблюдавшиеся между сроками (за 1-3 часа до срока); квадратными скобками обозначены град или гололедные отложения с указанием их диаметра в мм.
Облачность - указаны через наклонную черту общая и нижняя облачность в баллах и высота нижней границы облаков в метрах; квадратными скобками обозначены формы облаков: Ci - перистые, Cs - перисто-слоистые, Cc - перисто-кучевые, Ac - высококучевые, As - высокослоистые, Sc - слоисто-кучевые, Ns - слоисто-дождевые, Cu - кучевые, Cb - кучево-дождевые. Подробнее классификацию облаков см. в Атласе облаков (PDF).
T - Температура воздуха - температура, измеренная на высоте 2 м над землей.
Td - Температура точки росы - температура, при понижении до которой содержащийся в воздухе водяной пар достигнет насыщения.
f - Относительная влажность воздуха - влажноcть воздуха, измеренная на высоте 2 м над землей.
Te - Эффективная температура - температура, которую ощущает одетый по сезону человек в тени. Характеристика душности погоды. При расчете учитывается влияние влажности воздуха и скорости ветра на теплоощущения человека.
Tes - Эффективная температура на солнце - температура, которую ощущает человек, с поправкой на солнечный нагрев. Характеристика знойности погоды. Зависит от высоты солнца над горизонтом, облачности и скорости ветра. Ночью, в пасмурную погоду, а также при ветре 12 м/с и более поправка равна нулю.
P - Атмосферное давление - приведенное к уровню моря атмосферное давление.
Po - Атмосферное давление - измеренное на уровне метеостанции атмосферное давление.
Tmin - Минимальная температура - минимум температуры воздуха на высоте 2 м над землей.
Tmax - Максимальная температура - максимум температуры воздуха на высоте 2 м над землей.
R - Количество осадков - Количество выпавших осадков за период времени, мм. При наведении курсора мыши на число - период времени, за который выпало указанное количество осадков.
R24 - Количество осадков - Количество выпавших осадков за 24 часа, мм.
S - Снежный покров - Высота снежного покрова, см. При наведении курсора мыши на число - состояние снежного покрова и степень покрытия местности в баллах.